Flag for Germany Weather past 2 weeks in Konstanz, Baden-Württemberg, Germany

Now
33 °F

Light snow. Overcast.


Feels Like: 30 °F
Forecast: 26 / 43 °F
Wind: 3 mph from Northwest

Location: Konstanz

Current Time: Mar 5, 2015 at 7:51:07 AM

Latest Report: Mar 5, 2015 at 7:00 AM


Visibility: 14 mi

Pressure: 30.57 "Hg

Humidity: 87%

Dew point: 29 °F

Location of KonstanzLocation

Historic Weather in Konstanz — Graph

°F

Konstanz temperature yesterday

Maximum temperature yesterday: 44 °F (at 2:00 AM)
Minimum temperature yesterday: 33 °F (at 9:00 PM)
Average temperature yesterday: 38 °F

Past Weeks' High & Low Weather Summary

 TemperatureHumidityPressure
High52 °F (Mar 3, 4:00 PM)100% (Feb 20, 4:00 AM)30.77 "Hg (Feb 20, 4:00 AM)
Low26 °F (Feb 20, 8:00 AM)40% (Feb 20, 5:00 PM)29.55 "Hg (Feb 21, 1:00 PM)
Average37 °F82%30.08 "Hg
* Reported Feb 18 7:00 AM — Mar 5 7:00 AM, Konstanz, Weather by CustomWeather, © 2015

Note: Actual official high and low records may vary slightly from our data, if they occured in-between our weather recording intervals... More about our weather records

Advertising

Konstanz weather history for previous 24 hours

 ConditionsComfort  
Time TempWeatherWind HumidityBarometerVisibility
7:00 AM
Thu, Mar 5
33 °FLight snow. Overcast.3 mph87%30.57 "Hg14 mi
6:00 AM33 °FLight snow. Overcast.2 mph89%30.57 "Hg10 mi
5:00 AM33 °FSnow flurries. Overcast.2 mph86%30.56 "Hg22 mi
4:00 AM33 °FPassing clouds.3 mph84%30.56 "Hg25 mi
3:00 AM34 °FOvercast.3 mph78%30.55 "Hg31 mi
2:00 AM35 °FOvercast.2 mph76%30.54 "Hg37 mi
1:00 AM35 °FOvercast.2 mph76%30.53 "Hg40 mi
12:00 AM35 °FOvercast.3 mph74%30.52 "Hg43 mi
11:00 PM
Wed, Mar 4
35 °FOvercast.2 mph74%30.50 "Hg37 mi
10:00 PM34 °FPassing clouds.2 mph91%30.48 "Hg19 mi
9:00 PM33 °FPassing clouds.2 mph87%30.46 "Hg19 mi
8:00 PM36 °FPassing clouds.2 mph82%30.44 "Hg25 mi
7:00 PM37 °FPassing clouds.1 mph78%30.42 "Hg28 mi
6:00 PM38 °FPartly sunny.3 mph77%30.38 "Hg25 mi
5:00 PM37 °FOvercast.2 mph84%30.37 "Hg19 mi
4:00 PM35 °FSnow flurries. Overcast.6 mph84%30.37 "Hg2 mi
3:00 PM43 °FOvercast.1 mph58%30.33 "Hg9 mi
2:00 PM42 °FSprinkles. Overcast.3 mph66%30.35 "Hg16 mi
1:00 PM41 °FOvercast.2 mph68%30.36 "Hg28 mi
12:00 PM40 °FOvercast.2 mph76%30.37 "Hg19 mi
11:00 AM39 °FOvercast.3 mph80%30.37 "Hg25 mi
10:00 AM39 °FOvercast.3 mph84%30.36 "Hg19 mi
9:00 AM38 °FOvercast.2 mph86%30.36 "Hg25 mi
8:00 AM37 °FOvercast.2 mph89%30.35 "Hg25 mi
7:00 AM36 °FOvercast.2 mph92%30.34 "Hg19 mi
Weather by CustomWeather, © 2015

See weather overviewHow to use our weather pages